Home   Weather   Knoxville   Past weeks
Flag for USA

Past Weather in Knoxville, Tennessee, USA — Yesterday and Last 2 Weeks

Now
74 °F

Low clouds.


Feels Like: 72 °F
Forecast: 91 / 74 °F
Wind: 5 mph from Southwest

Location: McGhee Tyson Airport

Current Time: Jul 20, 2019 at 7:48:04 am

Latest Report: Jul 20, 2019 at 6:53 am


Visibility: 10 mi

Pressure: 30.03 "Hg

Humidity: 91%

Dew Point: 71 °F

Location of KnoxvilleLocation

Past Weather in Knoxville — Graph

°F

Knoxville Temperature Yesterday

Maximum temperature yesterday: 93 °F (at 4:53 pm)
Minimum temperature yesterday: 71 °F (at 4:53 am)
Average temperature yesterday: 80 °F

High & Low Weather Summary for the Past Weeks

 TemperatureHumidityPressure
High94 °F (Jul 9, 4:53 pm)97% (Jul 12, 4:53 am)30.20 "Hg (Jul 12, 4:53 am)
Low71 °F (Jul 8, 6:12 am)38% (Jul 16, 5:53 pm)29.83 "Hg (Jul 11, 5:53 pm)
Average80 °F75%30.00 "Hg
* Reported Jul 5 6:36 am — Jul 20 6:25 am, Knoxville. Weather by CustomWeather, © 2019

Note: Actual official high and low records may vary slightly from our data, if they occured in-between our weather recording intervals... More about our weather records

Advertising

Knoxville Weather History for the Previous 24 Hours

Scroll right to see more
 ConditionsComfort  
Time TempWeatherWind HumidityBarometerVisibility
6:25 am
Sat, Jul 20
74 °FLow clouds.5 mph88%30.06 "Hg10 mi
5:53 am74 °FOvercast.No wind88%30.01 "Hg10 mi
4:53 am74 °FOvercast.3 mph88%30.00 "Hg10 mi
4:16 am74 °FPassing clouds.5 mph88%30.04 "Hg10 mi
3:53 am73 °FClear.3 mph88%30.00 "Hg10 mi
2:53 am74 °FClear.No wind82%30.00 "Hg10 mi
1:53 am75 °FPassing clouds.5 mph79%30.01 "Hg10 mi
12:53 am75 °FClear.5 mph76%30.02 "Hg10 mi
11:53 pm
Fri, Jul 19
74 °FPassing clouds.5 mph79%30.01 "Hg10 mi
10:53 pm75 °FPassing clouds.3 mph76%30.01 "Hg10 mi
9:53 pm78 °FPassing clouds.8 mph69%30.01 "Hg10 mi
8:53 pm83 °FPassing clouds.15 mph59%29.99 "Hg10 mi
7:53 pm89 °FBroken clouds.6 mph53%29.97 "Hg10 mi
6:53 pm91 °FScattered clouds.6 mph47%29.96 "Hg10 mi
5:53 pm92 °FScattered clouds.6 mph44%29.96 "Hg10 mi
4:53 pm93 °FScattered clouds.3 mph42%29.98 "Hg10 mi
3:53 pm90 °FScattered clouds.7 mph48%29.99 "Hg10 mi
2:53 pm90 °FScattered clouds.3 mph48%30.01 "Hg10 mi
1:53 pm89 °FScattered clouds.5 mph53%30.03 "Hg10 mi
12:53 pm86 °FBroken clouds.3 mph59%30.06 "Hg10 mi
11:53 am86 °FScattered clouds.No wind59%30.06 "Hg10 mi
10:53 am83 °FScattered clouds.No wind65%30.07 "Hg10 mi
9:53 am80 °FPartly sunny.7 mph74%30.08 "Hg10 mi
8:53 am76 °FScattered clouds.No wind82%30.07 "Hg10 mi
7:53 am73 °FScattered clouds.No wind88%30.06 "Hg10 mi
Weather by CustomWeather, © 2019

See weather overview